sat.trackr.live / text

‹ back to catalog

STARLINK-34606

NORAD 64730 · 2025-144G

PAYLOAD ACTIVE UNKNOWN

§ Identity

Operator
Country
US
Launch date
2025-07-02
Launch site
AFETR
Launch vehicle
Mass (kg)
RCS (m²)

Purposes: comms

External: N2YO · Heavens-Above · Gunter

§ Orbital elements

Epoch: 2026-05-24T10:56:10.623264Z

Period
94.10 min
Inclination
53.1592°
Eccentricity
0.0001080
Mean motion
15.30217201 rev/d
Perigee alt
474.4 km
Apogee alt
475.9 km
Semi-major
6,853.3 km
B*
2.1588e-4
RAAN
189.0003°
Arg perigee
67.7299°
Mean anomaly
292.3817°
Rev number
5,131

§ Raw data

STARLINK-346061 64730U 25144G   26144.45567851  .00006043  00000+0  21588-3 0  99932 64730  53.1592 189.0003 0001080  67.7299 292.3817 15.30217201 51311

JSON: /api/v1/satellites/64730 · /tle

For live sub-satellite position, see the globe view (requires WebGL).

§ Visibility from observer

Set your observer location to see the next 7 days of passes ≥ 10°. The values pass through the URL so the page stays shareable.

No JS? Fill the form by hand. The geolocation button needs JavaScript.